This is the latest recevied weather packets stored in our database for station/object EA1FBN. If no packets are shown the sender has not sent any weather packets the latest 10 day(s).
| Time | Temp. | Humidity | Pressure | Rain* | Wind** | Luminosity | Snow |
|---|---|---|---|---|---|---|---|
| 1787752528 | 21.67° C | 52% | 1009.5 hPa | 0 mm | - | - | - |
| 1787752228 | 22.22° C | 51% | 1009.6 hPa | 0 mm | - | - | - |
| 1787751928 | 22.22° C | 50% | 1009.6 hPa | 0 mm | - | - | - |
| 1787751628 | 22.78° C | 47% | 1009.7 hPa | 0 mm | - | - | - |
| 1787751328 | 22.78° C | 47% | 1009.7 hPa | 0 mm | - | - | - |
| 1787751028 | 22.78° C | 47% | 1009.6 hPa | 0 mm | - | - | - |
| 1787750728 | 22.78° C | 46% | 1009.6 hPa | 0 mm | - | - | - |
| 1787750428 | 22.78° C | 47% | 1009.4 hPa | 0 mm | - | - | - |
| 1787750128 | 22.78° C | 46% | 1009.1 hPa | 0 mm | - | - | - |
| 1787749828 | 22.78° C | 47% | 1009 hPa | 0 mm | - | - | - |
| 1787749528 | 22.78° C | 47% | 1008.7 hPa | 0 mm | - | - | - |
| 1787749228 | 22.78° C | 48% | 1009.1 hPa | 0 mm | - | - | - |
| 1787748928 | 22.78° C | 49% | 1009 hPa | 0 mm | - | - | - |
| 1787748628 | 22.78° C | 49% | 1009.2 hPa | 0 mm | - | - | - |
| 1787748328 | 22.78° C | 50% | 1009.5 hPa | 0 mm | - | - | - |
| 1787748028 | 22.78° C | 49% | 1009.7 hPa | 0 mm | - | - | - |
| 1787747728 | 23.33° C | 49% | 1009.7 hPa | 0 mm | - | - | - |
| 1787747428 | 23.33° C | 47% | 1009.7 hPa | 0 mm | - | - | - |
| 1787747128 | 23.33° C | 47% | 1009.6 hPa | 0 mm | - | - | - |
| 1787746828 | 23.33° C | 47% | 1009.5 hPa | 0 mm | - | - | - |
| 1787746528 | 23.33° C | 47% | 1009.4 hPa | 0 mm | - | - | - |
| 1787746228 | 23.33° C | 48% | 1009.3 hPa | 0 mm | - | - | - |
| 1787745928 | 23.33° C | 47% | 1009.4 hPa | 0 mm | - | - | - |
| 1787745628 | 23.89° C | 47% | 1009.3 hPa | 0 mm | - | - | - |
| 1787745328 | 23.33° C | 49% | 1009.4 hPa | 0 mm | - | - | - |
* Rain latest hour (hover to see other rain measurements)
** Current wind speed in m/s (hover to see current wind gust speed)